Retour au catalogue

SL-19 DEB

ActifUNKNOWN
NORAD 23487·DEBRIS·🇷🇺 Russia

Lancé Dec 26, 1994 depuis Baikonur Cosmodrome

Loading…

Prochains Passages (prochaines 24 heures)

TLE

FraisSource: Space-Track

Époque: Sep 14, 2026, 02:42 UTC

1 23487U 94085K   26257.11311527  .00000017  00000-0  16390-2 0  9992
2 23487  64.9376 135.2008 0167668 166.4376 347.6010 11.30419591309004

Suivez SL-19 DEB en temps réel avec AllMySat

Download on the App Store